Location: *
(51.2167°N, 10.0667°E)
Time: 18:56:57
(UTC+00:00)

Meteor 1-12 Rocket - Pass Details

Date: 12 December 2019
Orbit: 854 x 927 km, 81.2° (Epoch: 26 January)

Event Time Altitude Azimuth Distance (km) Brightness Sun altitude
Rises 17:27:05 0° 349° (N) 3,551 7.4 -19.9°
Reaches altitude 10° 17:29:39 10° 355° (N) 2,595 6.7 -20.3°
Maximum altitude 17:35:25 52° 71° (ENE) 1,101 4.4 -21.2°
Drops below altitude 10° 17:41:02 10° 148° (SSE) 2,529 6.5 -22.0°
Sets 17:43:30 0° 153° (SSE) 3,453 7.2 -22.4°
